Temperature
18 18 17 17 17 17 17 17 17 17 17 17 17 17 17 17 16 16 16 16 16 16 16 16 16 16 16 16 16 16 16 16 16 15 15 15 15 14 14 14 14 14 14
18 18 18 17 17 17 17 17 17 17 17 17 17 16 16 16 16 16 16 16 16 16 16 16 15 15 15 15 15 15 15 15 15 15 14 14 14 14 14 13 13 13 13
18 18 17 17 17 17 17 17 17 17 17 16 16 16 16 16 16 16 16 16 16 15 15 15 15 15 15 15 15 15 15 15 15 14 14 14 13 13 13 13 12 12 12
17 17 17 17 17 17 17 17 17 17 16 16 16 16 16 16 16 16 15 15 15 15 15 15 15 15 14 14 14 14 14 14 14 14 14 13 13 12 12 12 12 11 11
17 17 17 17 17 17 16 16 16 16 16 16 16 16 15 15 15 15 15 15 15 15 15 15 14 14 14 14 14 14 14 13 13 13 13 13 12 12 12 12 11 11 10
17 17 17 17 16 16 16 16 16 16 16 15 15 15 15 15 15 15 15 15 14 14 14 14 14 14 14 14 14 13 13 13 13 13 12 12 11 11 11 11 11 11 10
17 17 17 16 16 16 16 16 16 16 15 15 15 15 15 15 15 15 14 14 14 14 14 13 13 13 13 13 13 13 12 12 12 12 11 11 11 10 10 10 10 10 9
17 17 16 16 16 16 16 15 15 15 15 15 15 14 14 14 14 14 14 14 13 13 13 13 12 12 12 12 12 12 12 11 11 11 11 10 10 10 10 9 9 9 9
17 16 16 16 16 15 15 15 15 15 15 14 14 14 14 14 13 13 13 13 13 13 12 12 12 12 11 11 11 11 11 10 10 10 10 10 10 9 9 9 9 9 9
16 16 16 16 15 15 15 15 14 14 14 14 14 14 13 13 13 13 13 12 12 12 11 11 11 11 11 10 10 10 10 9 9 9 9 9 9 8 8 8 8 9 9
16 16 16 15 15 15 14 14 14 14 14 13 13 13 13 13 12 12 12 11 11 11 11 10 10 10 10 10 9 9 9 9 8 8 8 8 8 8 8 7 7 8 8
15 15 15 15 14 14 14 14 14 13 13 13 12 12 12 12 12 11 11 11 11 10 10 10 9 9 9 9 9 9 8 8 8 8 8 8 8 7 7 7 7 7 6
15 15 15 14 14 14 13 13 13 13 12 12 12 11 11 11 11 11 10 10 10 10 9 9 9 8 8 8 8 8 8 8 8 8 8 7 7 6 6 6 6 6 6
15 14 14 13 13 13 13 12 12 12 12 11 11 11 11 10 10 10 9 9 9 9 8 8 8 8 8 7 7 7 7 7 7 7 7 7 6 6 6 6 6 6 6
14 13 13 13 12 12 12 11 11 11 11 11 11 11 10 10 10 9 9 9 9 8 8 8 7 7 7 7 7 7 7 7 7 6 6 6 6 6 6 6 6 6 6
13 13 12 12 12 12 11 11 11 10 10 10 10 10 10 9 9 9 8 8 8 8 8 8 7 7 7 7 7 6 6 6 6 6 6 6 6 6 6 6 6 6 6
13 12 12 12 11 11 11 10 10 10 10 9 9 9 9 9 8 8 8 8 7 7 7 7 7 7 7 7 7 6 6 6 6 6 6 6 6 6 6 6 6 6 6
12 12 12 11 11 11 10 10 10 9 9 9 8 8 8 8 8 7 7 7 7 7 7 7 7 6 6 6 6 6 6 5 5 5 5 5 5 6 6 6 6 5 6
11 11 11 11 10 10 10 9 9 9 9 8 8 7 7 7 7 7 7 7 7 7 7 7 6 6 6 6 5 5 5 5 5 5 5 5 5 5 5 6 6 5 5
11 11 10 10 10 9 9 9 9 8 8 8 8 7 7 7 7 7 6 7 7 7 7 6 6 6 6 5 5 5 5 5 5 5 5 5 5 5 5 5 5 5 5
10 10 10 9 9 9 9 9 9 8 8 8 8 7 7 7 7 7 7 7 7 7 6 6 6 6 5 5 5 5 5 5 5 5 5 5 5 5 5 5 5 5 5
10 9 9 9 9 9 9 8 8 8 8 8 7 7 7 7 7 7 7 7 6 6 6 6 6 6 5 5 5 5 5 5 5 5 5 5 5 5 5 5 5 5 5
9 9 9 9 8 8 8 8 8 8 8 8 8 7 7 7 7 7 7 6 6 6 6 6 6 5 5 5 5 5 5 5 5 4 4 5 5 5 5 5 4 5 5
9 9 9 8 8 8 8 8 8 8 8 8 8 7 7 7 7 7 6 6 6 6 6 5 5 5 5 5 5 5 5 5 4 4 4 4 4 4 4 4 4 4 4
9 9 8 8 8 8 8 8 8 8 8 8 8 8 7 7 7 7 6 6 6 6 6 5 5 5 5 5 5 5 5 5 5 4 4 4 4 4 4 4 4 4 4
8 8 8 8 8 8 8 8 8 8 8 8 8 8 7 7 7 7 6 6 6 6 6 6 5 5 5 5 5 5 5 5 5 4 4 4 4 4 4 4 4 4 4
Wind_Speed
6 6 6 6 5 5 5 5 5 5 5 5 6 6 6 6 6 6 6 6 6 6 6 5 6 6 5 5 5 5 5 4 5 4 1 1 1 1 3 3 4 6 7
6 6 5 5 5 5 5 4 4 4 4 4 4 4 5 5 5 6 6 6 6 5 5 4 4 4 4 4 4 4 4 4 5 5 3 1 0 1 2 2 3 5 6
6 6 5 5 5 4 4 3 3 3 3 3 4 4 4 4 4 4 4 4 4 3 3 3 3 3 3 3 3 4 3 3 3 4 3 2 1 2 3 3 4 4 5
6 6 5 4 4 4 4 3 3 2 2 2 2 2 2 2 2 2 3 2 2 1 1 1 1 2 2 3 3 3 2 2 2 3 3 3 2 2 3 3 3 3 3
6 6 5 5 4 4 4 4 3 3 3 2 2 2 2 2 1 1 2 2 2 2 1 1 2 3 4 2 0 1 1 2 3 3 3 2 2 2 2 2 3 3 3
6 6 5 5 5 5 5 5 4 3 3 3 3 3 3 2 5 4 1 2 2 2 2 3 4 5 7 9 10 9 6 2 1 2 2 2 2 2 2 2 2 2 1
7 6 6 6 6 6 5 5 5 5 5 4 4 4 4 6 7 6 5 3 4 3 3 3 3 5 5 6 9 9 10 10 7 3 3 2 3 2 2 3 2 2 2
7 7 6 6 6 6 6 6 6 5 5 5 5 5 6 6 7 7 6 6 6 5 5 5 5 5 5 5 7 8 8 9 7 6 5 5 4 3 2 3 4 4 3
8 7 7 7 7 7 6 6 6 6 6 6 6 6 6 6 6 5 4 6 6 7 6 6 6 6 7 5 8 8 8 8 13 14 13 12 11 9 5 2 3 2 2
8 7 7 7 7 7 7 6 6 6 7 7 7 6 6 6 6 5 3 5 6 6 6 7 9 8 6 5 6 7 7 6 7 8 9 9 9 9 8 5 2 1 1
8 8 8 7 7 7 7 6 6 7 7 7 7 7 6 6 7 6 4 4 6 6 6 6 6 9 8 7 6 6 5 4 6 6 7 6 6 6 7 7 7 4 3
8 8 8 7 7 7 8 7 7 7 8 7 7 6 5 5 6 7 7 6 5 7 6 6 7 9 9 8 7 6 3 2 5 5 6 6 6 6 6 7 8 8 7
9 8 8 7 6 7 7 7 6 6 6 6 6 5 5 5 7 9 9 8 7 7 8 10 10 9 9 9 8 3 2 3 5 5 5 5 5 5 5 5 5 5 4
9 9 8 8 7 6 5 5 5 5 5 5 6 6 5 5 5 6 7 8 9 9 9 10 9 7 7 7 5 3 4 5 4 4 5 4 4 4 3 3 2 2 2
9 8 8 8 8 7 6 5 4 4 3 4 5 6 6 6 4 4 5 6 6 7 7 6 6 5 5 5 5 4 4 4 4 4 4 3 3 3 3 2 1 1 1
9 8 7 7 7 7 8 8 13 10 11 10 8 6 7 8 9 9 9 9 8 5 5 6 5 5 5 4 4 4 4 3 3 3 3 2 2 2 2 1 1 1 2
8 8 7 7 7 7 7 7 7 8 12 12 10 10 10 10 10 10 10 9 6 3 5 5 4 4 4 3 3 3 3 3 2 2 2 2 1 1 1 1 1 2 2
8 8 7 7 7 7 7 7 7 8 7 6 8 9 10 10 9 9 8 8 6 4 4 5 4 3 3 3 3 3 3 3 2 1 1 1 1 1 1 1 2 3 3
7 6 6 6 6 7 7 7 7 8 7 7 7 6 7 9 9 7 5 4 5 4 4 4 4 3 3 3 2 2 2 2 1 0 1 0 0 1 1 2 1 0 4
7 9 8 7 7 7 7 7 7 7 7 7 6 7 7 7 6 6 4 3 4 4 4 3 3 3 3 2 2 2 2 2 2 1 1 1 1 2 2 2 3 3 3
7 8 9 7 7 7 7 7 7 7 6 6 6 6 4 6 6 6 5 4 3 3 3 3 3 3 3 3 2 2 2 1 1 1 1 2 2 2 3 3 3 4 4
7 7 7 7 7 7 6 7 7 6 7 7 7 7 4 3 5 5 4 4 3 3 3 2 2 2 2 2 2 2 2 2 2 2 2 2 2 3 3 3 3 4 5
7 8 7 7 7 7 6 6 6 6 6 6 6 7 6 4 4 4 3 3 2 2 2 2 2 2 2 2 2 3 3 2 2 2 3 3 3 3 4 4 5 6 6
7 7 7 7 7 6 6 6 5 5 6 6 6 6 5 5 4 4 3 3 3 3 3 3 3 3 3 3 4 4 4 2 3 4 5 5 5 4 4 5 6 6 6
7 6 6 6 6 6 6 5 5 5 5 5 5 5 5 5 5 4 4 4 4 4 4 4 4 5 5 6 5 4 3 2 4 5 5 6 6 6 6 7 6 7 7
6 6 6 5 5 5 5 5 5 5 4 4 4 4 4 4 4 5 5 5 5 5 5 6 6 6 7 8 7 5 5 6 7 8 8 7 7 6 7 7 8 8 8
Wind_Direction
182 183 181 187 188 191 197 203 204 208 204 212 217 218 216 215 213 217 224 219 221 226 235 237 242 252 248 250 250 250 252 253 246 249 246 138 110 114 100 114 115 107 99
169 168 172 177 179 183 187 193 196 208 210 208 213 215 215 213 215 218 220 220 221 224 227 230 240 239 241 255 258 254 252 249 237 230 229 214 104 128 115 112 105 106 101
164 163 166 172 173 176 179 180 186 200 204 203 199 201 202 206 212 217 215 212 215 220 225 226 234 238 247 250 254 252 248 242 232 216 210 185 171 149 126 107 95 86 101
158 157 160 169 171 172 171 166 167 171 176 182 181 187 185 182 186 197 196 189 186 180 197 230 242 242 244 241 237 239 233 221 196 188 182 177 170 164 158 147 128 106 84
151 153 155 158 158 157 155 151 148 148 147 135 133 131 125 137 143 154 159 151 146 130 104 83 64 65 51 42 65 147 189 205 193 179 176 170 160 156 160 147 133 117 92
155 156 154 151 147 143 141 139 133 128 124 116 118 122 120 110 73 71 114 137 130 121 114 107 100 88 84 76 67 58 48 62 128 157 154 133 122 121 119 133 143 145 124
155 155 152 144 138 133 133 130 125 118 113 110 111 111 104 78 76 76 73 104 103 94 90 89 88 85 94 100 91 82 62 50 45 62 88 85 105 105 122 135 118 96 83
152 149 147 142 134 131 131 128 123 118 113 108 103 100 98 84 78 82 86 98 92 85 80 82 88 86 82 95 97 86 75 62 61 71 79 69 71 72 93 117 120 126 128
154 150 147 145 140 137 135 128 122 120 116 112 107 101 100 91 74 78 92 106 98 88 78 72 82 88 67 81 103 99 92 87 76 78 79 82 76 67 58 106 125 146 127
151 145 142 143 141 138 135 130 125 121 117 113 101 97 96 94 78 74 88 116 110 105 95 83 71 80 68 63 100 104 101 95 94 93 91 92 84 75 59 40 40 85 94
141 137 133 137 137 134 130 126 125 121 114 109 104 97 93 90 89 72 57 111 119 115 108 98 85 80 76 62 75 92 97 107 109 106 103 96 89 78 68 56 39 28 35
136 132 130 135 136 133 129 126 127 127 123 117 112 104 95 92 87 86 75 70 84 110 108 104 101 95 86 76 83 86 98 122 105 100 95 87 80 75 70 64 57 53 50
134 132 130 130 129 131 133 136 137 137 135 132 129 123 112 104 95 90 90 83 79 95 98 97 106 113 114 94 88 97 137 101 97 99 94 86 80 80 86 91 90 88 87
136 135 134 131 126 121 125 132 136 140 141 138 134 129 124 121 118 120 119 116 116 111 110 113 113 99 97 99 112 100 80 71 73 88 93 93 95 99 87 72 78 91 88
135 133 133 130 124 113 95 69 92 84 100 134 139 141 142 138 118 96 128 127 123 119 127 126 119 114 104 100 97 90 89 95 91 89 94 96 93 88 76 61 24 9 36
140 139 138 136 132 130 119 94 58 62 69 68 62 86 101 103 112 107 98 93 98 119 127 117 113 111 109 111 112 108 96 86 85 89 91 89 88 82 75 60 27 5 11
143 141 139 139 139 138 134 130 118 82 69 67 72 80 99 114 115 117 117 117 123 149 127 118 120 121 119 120 116 108 100 90 75 89 91 90 90 78 54 34 18 358 356
138 132 138 141 140 137 135 134 133 131 123 105 84 90 108 119 126 132 140 144 138 150 125 124 129 132 128 120 112 110 112 117 121 116 105 83 43 24 20 0 14 353 338
132 133 132 132 133 132 133 133 132 131 129 128 124 115 122 132 136 146 174 166 143 143 135 134 139 137 128 121 115 116 122 121 106 132 113 80 326 322 331 325 341 132 297
119 115 125 130 130 133 136 137 136 135 135 137 141 142 148 155 147 153 172 167 147 140 142 141 134 127 128 133 145 156 156 153 168 204 190 241 270 290 292 297 312 309 306
123 126 131 131 132 134 136 138 140 144 147 146 147 142 161 166 156 156 162 160 154 147 145 143 146 155 160 171 175 181 191 183 194 229 244 259 277 288 291 294 298 303 311
124 129 130 126 128 131 135 141 148 152 152 149 143 145 172 191 163 162 160 158 158 153 153 164 169 163 173 186 191 201 209 214 226 240 250 259 265 276 282 289 299 305 305
123 125 125 126 128 132 144 147 149 147 147 150 149 153 168 174 161 158 159 157 154 160 164 174 190 188 180 187 197 212 233 237 243 257 263 267 271 275 278 284 288 293 301
127 131 131 132 136 143 145 144 145 148 151 154 158 163 166 166 169 168 174 172 178 183 185 193 201 195 193 203 213 220 226 249 260 251 261 271 275 282 283 281 283 292 294
131 130 132 135 140 142 144 147 149 155 160 165 168 170 171 175 178 181 186 191 197 201 205 211 211 210 214 223 230 230 169 202 256 270 255 262 271 278 280 281 283 288 290
129 130 133 137 141 144 149 153 158 165 170 171 172 176 181 185 188 195 200 206 212 210 217 222 225 226 227 230 228 209 192 213 230 250 259 263 266 270 276 277 280 279 282
Height
1535 1536 1538 1540 1541 1543 1544 1546 1547 1549 1550 1552 1553 1554 1555 1557 1558 1558 1560 1560 1561 1562 1563 1563 1564 1564 1565 1566 1566 1566 1567 1567 1566 1566 1567 1567 1567 1567 1568 1568 1568 1568 1568
1534 1535 1537 1538 1540 1541 1543 1544 1545 1547 1548 1550 1551 1552 1553 1554 1554 1555 1556 1557 1558 1558 1559 1559 1560 1561 1560 1561 1562 1562 1562 1562 1563 1562 1563 1563 1563 1564 1564 1564 1565 1565 1565
1533 1535 1536 1537 1538 1539 1541 1542 1543 1545 1546 1548 1549 1550 1550 1551 1552 1553 1553 1554 1555 1555 1556 1556 1557 1557 1557 1557 1557 1558 1558 1558 1558 1559 1559 1559 1560 1561 1561 1561 1562 1562 1563
1533 1534 1535 1536 1537 1538 1539 1541 1542 1543 1544 1545 1546 1547 1548 1549 1550 1550 1551 1551 1552 1553 1553 1553 1554 1554 1554 1553 1554 1554 1554 1555 1555 1555 1556 1556 1557 1558 1559 1559 1559 1560 1560
1532 1533 1534 1534 1535 1536 1537 1539 1540 1542 1543 1544 1544 1545 1546 1547 1548 1548 1549 1549 1550 1550 1550 1550 1551 1551 1551 1551 1551 1551 1551 1552 1553 1553 1553 1554 1555 1555 1556 1556 1557 1558 1558
1531 1532 1533 1533 1534 1535 1536 1538 1539 1540 1541 1542 1543 1544 1545 1546 1546 1547 1547 1548 1548 1548 1548 1548 1548 1548 1548 1549 1549 1548 1549 1549 1550 1551 1551 1551 1552 1553 1553 1554 1555 1556 1556
1530 1531 1532 1532 1533 1534 1535 1537 1538 1539 1540 1541 1542 1543 1544 1544 1545 1546 1546 1546 1547 1547 1547 1547 1547 1547 1547 1547 1547 1547 1547 1547 1548 1549 1549 1550 1550 1551 1551 1552 1553 1554 1554
1529 1530 1531 1532 1533 1534 1535 1536 1537 1538 1540 1540 1541 1542 1543 1543 1545 1545 1546 1546 1546 1545 1546 1546 1546 1546 1546 1547 1547 1546 1546 1546 1546 1547 1548 1548 1549 1549 1550 1551 1552 1552 1553
1527 1529 1530 1531 1532 1533 1534 1535 1537 1538 1539 1540 1541 1541 1542 1543 1544 1544 1545 1545 1545 1545 1545 1546 1546 1546 1546 1546 1547 1546 1547 1547 1547 1547 1548 1548 1548 1549 1550 1551 1552 1552 1553
1526 1527 1529 1531 1532 1533 1534 1535 1537 1538 1539 1540 1540 1541 1542 1542 1543 1544 1544 1545 1544 1545 1545 1545 1546 1546 1546 1546 1547 1547 1547 1548 1549 1548 1548 1549 1549 1549 1549 1550 1551 1552 1552
1525 1526 1528 1530 1532 1533 1534 1535 1536 1537 1538 1539 1539 1540 1541 1542 1542 1543 1543 1544 1544 1544 1545 1545 1546 1546 1547 1547 1547 1548 1548 1549 1550 1550 1550 1550 1550 1550 1551 1550 1550 1551 1552
1524 1525 1527 1529 1531 1532 1533 1534 1535 1536 1537 1538 1539 1540 1540 1541 1541 1542 1543 1543 1544 1545 1545 1545 1546 1547 1547 1547 1547 1548 1549 1550 1551 1552 1552 1552 1552 1552 1551 1551 1550 1550 1550
1522 1524 1526 1528 1529 1531 1532 1533 1534 1535 1537 1538 1539 1539 1540 1540 1541 1542 1543 1543 1544 1544 1545 1546 1546 1547 1548 1548 1549 1549 1550 1551 1552 1553 1553 1553 1553 1552 1552 1552 1551 1551 1551
1521 1523 1524 1526 1528 1529 1531 1533 1534 1535 1536 1537 1538 1539 1540 1540 1541 1542 1543 1543 1544 1545 1546 1546 1547 1548 1549 1549 1550 1551 1551 1552 1552 1553 1554 1554 1554 1554 1554 1554 1554 1553 1553
1519 1521 1523 1525 1527 1528 1530 1531 1533 1534 1536 1537 1538 1539 1539 1540 1541 1542 1543 1544 1545 1545 1547 1548 1549 1550 1550 1551 1552 1552 1553 1553 1553 1554 1555 1555 1555 1555 1555 1554 1554 1554 1554
1518 1520 1522 1524 1526 1528 1529 1531 1532 1534 1535 1536 1537 1539 1539 1540 1541 1542 1543 1544 1545 1546 1548 1549 1550 1551 1552 1553 1554 1554 1554 1554 1554 1555 1555 1555 1555 1556 1556 1555 1555 1554 1554
1518 1519 1521 1524 1526 1527 1529 1530 1532 1534 1535 1536 1538 1539 1540 1540 1542 1543 1544 1545 1546 1547 1549 1550 1551 1552 1552 1554 1555 1555 1555 1555 1555 1555 1555 1556 1556 1556 1556 1556 1555 1554 1554
1517 1519 1521 1523 1525 1527 1529 1531 1532 1534 1535 1537 1539 1540 1541 1542 1543 1544 1545 1547 1548 1549 1550 1551 1552 1552 1553 1554 1555 1555 1555 1555 1555 1556 1556 1556 1556 1556 1556 1556 1555 1554 1554
1516 1518 1520 1522 1524 1526 1529 1531 1533 1535 1536 1538 1539 1541 1542 1543 1544 1545 1547 1548 1549 1550 1551 1551 1552 1553 1553 1554 1554 1555 1555 1556 1556 1556 1556 1556 1556 1556 1556 1556 1555 1554 1553
1517 1518 1520 1522 1524 1527 1529 1531 1533 1535 1537 1538 1540 1541 1543 1544 1545 1546 1547 1549 1550 1550 1551 1552 1552 1553 1553 1554 1554 1555 1555 1555 1555 1556 1556 1556 1556 1556 1555 1555 1554 1553 1552
1517 1519 1521 1523 1525 1527 1530 1532 1534 1536 1537 1539 1541 1542 1543 1545 1546 1547 1548 1549 1550 1550 1551 1552 1552 1552 1553 1553 1554 1554 1555 1555 1555 1556 1556 1556 1555 1555 1554 1554 1553 1552 1551
1518 1520 1522 1525 1526 1528 1531 1533 1535 1536 1538 1539 1541 1542 1543 1545 1547 1547 1548 1549 1549 1550 1550 1551 1552 1552 1552 1553 1553 1554 1554 1555 1555 1555 1555 1554 1554 1553 1553 1552 1551 1550 1549
1520 1522 1524 1526 1528 1529 1531 1534 1535 1537 1538 1540 1541 1542 1543 1545 1546 1546 1547 1548 1548 1549 1550 1550 1551 1551 1551 1552 1552 1552 1553 1553 1553 1553 1553 1553 1552 1552 1551 1550 1549 1549 1547
1522 1524 1526 1527 1529 1531 1533 1534 1536 1537 1538 1540 1541 1542 1543 1544 1545 1546 1546 1547 1548 1548 1549 1549 1550 1550 1550 1550 1551 1551 1551 1551 1551 1551 1550 1550 1550 1549 1549 1548 1547 1546 1545
1524 1526 1527 1529 1530 1532 1533 1535 1536 1537 1539 1540 1540 1541 1542 1543 1544 1545 1546 1546 1547 1547 1548 1548 1549 1549 1549 1549 1549 1550 1549 1548 1548 1548 1548 1548 1548 1547 1546 1545 1544 1543 1542
1526 1527 1529 1530 1532 1533 1534 1535 1536 1537 1538 1539 1540 1541 1542 1543 1543 1544 1544 1545 1545 1546 1546 1547 1547 1547 1547 1547 1547 1547 1546 1546 1546 1545 1545 1545 1545 1544 1543 1542 1541 1540 1539